Hourly Weather Barok

Today, 26 September, Saturday

Time Temperature Precipitation Wind Pressure Humidity
00:00 +19°C° 0 mm 6 mps 733 mmHg 63%
01:00 +19°C° 0 mm 6 mps 733 mmHg 66%
02:00 +17°C° 0 mm 5 mps 732 mmHg 70%
03:00 +16°C° 0 mm 6 mps 732 mmHg 71%
04:00 +16°C° 0 mm 6 mps 732 mmHg 72%
05:00 +15°C° 0 mm 6 mps 732 mmHg 73%
06:00 +16°C° 0 mm 7 mps 732 mmHg 73%
07:00 +17°C° 0 mm 7 mps 731 mmHg 73%
08:00 +17°C° 0 mm 8 mps 731 mmHg 72%
09:00 +20°C° 0 mm 8 mps 731 mmHg 64%
10:00 +22°C° 0 mm 9 mps 731 mmHg 56%
11:00 +24°C° 0 mm 9 mps 731 mmHg 48%
12:00 +26°C° 0 mm 9 mps 731 mmHg 45%
13:00 +27°C° 0 mm 9 mps 730 mmHg 42%
14:00 +28°C° 0 mm 9 mps 730 mmHg 39%
15:00 +27°C° 0 mm 9 mps 729 mmHg 41%
16:00 +27°C° 0 mm 8 mps 729 mmHg 43%
17:00 +26°C° 0 mm 7 mps 729 mmHg 44%
18:00 +24°C° 0 mm 8 mps 729 mmHg 51%
19:00 +23°C° 0 mm 9 mps 728 mmHg 58%
20:00 +22°C° 0 mm 9 mps 728 mmHg 65%
21:00 +21°C° 0.3 mm 9 mps 728 mmHg 71%
22:00 +19°C° 0.3 mm 9 mps 728 mmHg 76%
23:00 +18°C° 0.3 mm 9 mps 728 mmHg 82%

Tomorrow, 27 September, Sunday

Time Temperature Precipitation Wind Pressure Humidity
00:00 +18°C° 0.7 mm 9 mps 728 mmHg 83%
01:00 +18°C° 0.7 mm 9 mps 727 mmHg 83%
02:00 +18°C° 0.7 mm 10 mps 727 mmHg 83%
03:00 +18°C° 1 mm 10 mps 727 mmHg 84%
04:00 +18°C° 1 mm 11 mps 727 mmHg 85%
05:00 +18°C° 1 mm 11 mps 727 mmHg 86%
06:00 +17°C° 1.5 mm 9 mps 727 mmHg 84%
07:00 +17°C° 1.5 mm 8 mps 728 mmHg 82%
08:00 +16°C° 1.5 mm 6 mps 728 mmHg 80%
09:00 +16°C° 0.1 mm 6 mps 729 mmHg 78%
10:00 +16°C° 0.1 mm 6 mps 730 mmHg 75%
11:00 +16°C° 0.1 mm 5 mps 732 mmHg 73%
12:00 +16°C° 0.1 mm 5 mps 732 mmHg 70%
13:00 +16°C° 0.1 mm 5 mps 733 mmHg 68%
14:00 +17°C° 0.1 mm 4 mps 734 mmHg 65%
15:00 +17°C° 0 mm 3 mps 735 mmHg 63%
16:00 +17°C° 0 mm 2 mps 736 mmHg 60%
17:00 +18°C° 0 mm 1 mps 737 mmHg 58%
18:00 +16°C° 0.1 mm 1 mps 737 mmHg 61%
19:00 +15°C° 0.1 mm 2 mps 738 mmHg 65%
20:00 +15°C° 0.1 mm 2 mps 738 mmHg 69%
21:00 +14°C° 0 mm 2 mps 739 mmHg 71%
22:00 +13°C° 0 mm 2 mps 740 mmHg 73%
23:00 +12°C° 0 mm 2 mps 740 mmHg 76%

Day after tomorrow, 28 September, Monday

Time Temperature Precipitation Wind Pressure Humidity
00:00 +12°C° 0 mm 2 mps 740 mmHg 77%
01:00 +12°C° 0 mm 2 mps 741 mmHg 78%
02:00 +10°C° 0 mm 2 mps 741 mmHg 79%
03:00 +10°C° 0 mm 2 mps 741 mmHg 80%
04:00 +10°C° 0 mm 2 mps 741 mmHg 82%
05:00 +10°C° 0 mm 3 mps 741 mmHg 83%
06:00 +11°C° 0 mm 3 mps 741 mmHg 80%
07:00 +12°C° 0 mm 3 mps 741 mmHg 77%
08:00 +13°C° 0 mm 4 mps 742 mmHg 74%
09:00 +15°C° 0 mm 5 mps 742 mmHg 66%
10:00 +19°C° 0 mm 5 mps 742 mmHg 58%
11:00 +21°C° 0 mm 6 mps 742 mmHg 50%
12:00 +21°C° 0 mm 6 mps 741 mmHg 46%
13:00 +22°C° 0 mm 6 mps 741 mmHg 41%
14:00 +23°C° 0 mm 6 mps 741 mmHg 37%
15:00 +22°C° 0 mm 6 mps 740 mmHg 38%
16:00 +22°C° 0 mm 5 mps 740 mmHg 40%
17:00 +21°C° 0 mm 4 mps 740 mmHg 41%
18:00 +21°C° 0 mm 5 mps 740 mmHg 42%
19:00 +20°C° 0 mm 5 mps 740 mmHg 43%
20:00 +19°C° 0 mm 6 mps 740 mmHg 43%
21:00 +19°C° 0 mm 5 mps 740 mmHg 46%
22:00 +17°C° 0 mm 5 mps 739 mmHg 48%
23:00 +17°C° 0 mm 4 mps 739 mmHg 50%

29 September, Tuesday

Time Temperature Precipitation Wind Pressure Humidity
00:00 +17°C° 0 mm 4 mps 739 mmHg 52%
01:00 +17°C° 0 mm 4 mps 739 mmHg 54%
02:00 +15°C° 0 mm 4 mps 738 mmHg 56%
03:00 +15°C° 0.5 mm 4 mps 738 mmHg 61%
04:00 +14°C° 0.5 mm 3 mps 738 mmHg 66%
05:00 +14°C° 0.5 mm 3 mps 737 mmHg 71%
06:00 +13°C° 1.9 mm 3 mps 737 mmHg 77%
07:00 +13°C° 1.9 mm 3 mps 737 mmHg 82%
08:00 +12°C° 1.9 mm 4 mps 737 mmHg 88%
09:00 +13°C° 0.7 mm 3 mps 737 mmHg 89%
10:00 +13°C° 0.7 mm 3 mps 737 mmHg 89%
11:00 +15°C° 0.7 mm 2 mps 736 mmHg 89%
12:00 +14°C° 1 mm 3 mps 736 mmHg 90%
13:00 +13°C° 1 mm 3 mps 736 mmHg 90%
14:00 +13°C° 1 mm 3 mps 736 mmHg 91%
15:00 +13°C° 0 mm 3 mps 736 mmHg 90%
16:00 +13°C° 0 mm 3 mps 735 mmHg 89%
17:00 +14°C° 0 mm 3 mps 735 mmHg 88%
18:00 +13°C° 0 mm 3 mps 735 mmHg 90%
19:00 +12°C° 0 mm 3 mps 735 mmHg 93%
20:00 +13°C° 0 mm 2 mps 735 mmHg 95%
21:00 +12°C° 0 mm 3 mps 735 mmHg 95%
22:00 +12°C° 0 mm 3 mps 735 mmHg 95%
23:00 +12°C° 0 mm 3 mps 734 mmHg 94%

30 September, Wednesday

Time Temperature Precipitation Wind Pressure Humidity
00:00 +12°C° 0 mm 3 mps 734 mmHg 94%
01:00 +12°C° 0 mm 4 mps 734 mmHg 93%
02:00 +12°C° 0 mm 4 mps 733 mmHg 92%
03:00 +12°C° 0.2 mm 5 mps 733 mmHg 91%
04:00 +12°C° 0.2 mm 5 mps 733 mmHg 90%
05:00 +12°C° 0.2 mm 5 mps 733 mmHg 89%
06:00 +11°C° 0.3 mm 6 mps 733 mmHg 89%
07:00 +11°C° 0.3 mm 6 mps 732 mmHg 89%
08:00 +11°C° 0.3 mm 6 mps 732 mmHg 89%
09:00 +11°C° 0.3 mm 6 mps 732 mmHg 88%
10:00 +11°C° 0.3 mm 6 mps 732 mmHg 87%
11:00 +11°C° 0.3 mm 6 mps 732 mmHg 86%
12:00 +13°C° 0 mm 6 mps 732 mmHg 85%
13:00 +12°C° 0 mm 7 mps 732 mmHg 84%
14:00 +12°C° 0 mm 7 mps 731 mmHg 83%
15:00 +13°C° 0 mm 6 mps 731 mmHg 83%
16:00 +13°C° 0 mm 6 mps 731 mmHg 84%
17:00 +13°C° 0 mm 5 mps 731 mmHg 84%
18:00 +13°C° 0 mm 5 mps 731 mmHg 85%
19:00 +12°C° 0 mm 4 mps 731 mmHg 87%
20:00 +12°C° 0 mm 3 mps 731 mmHg 88%
21:00 +12°C° 0 mm 3 mps 731 mmHg 89%
22:00 +12°C° 0 mm 3 mps 731 mmHg 90%
23:00 +12°C° 0 mm 4 mps 731 mmHg 91%

1 October, Thursday

Time Temperature Precipitation Wind Pressure Humidity
00:00 +12°C° 0.1 mm 4 mps 730 mmHg 90%
01:00 +12°C° 0.1 mm 3 mps 730 mmHg 90%
02:00 +12°C° 0.1 mm 3 mps 730 mmHg 89%
03:00 +12°C° 0.3 mm 4 mps 730 mmHg 89%
04:00 +12°C° 0.3 mm 4 mps 730 mmHg 88%
05:00 +12°C° 0.3 mm 4 mps 730 mmHg 88%
06:00 +12°C° 0.1 mm 4 mps 730 mmHg 86%
07:00 +12°C° 0.1 mm 4 mps 730 mmHg 85%
08:00 +12°C° 0.1 mm 5 mps 730 mmHg 84%
09:00 +13°C° 0 mm 4 mps 731 mmHg 81%
10:00 +13°C° 0 mm 4 mps 731 mmHg 78%
11:00 +14°C° 0 mm 4 mps 731 mmHg 75%
12:00 +15°C° 0 mm 4 mps 731 mmHg 68%
13:00 +17°C° 0 mm 5 mps 732 mmHg 62%
14:00 +19°C° 0 mm 5 mps 732 mmHg 55%
15:00 +17°C° 0.2 mm 5 mps 732 mmHg 58%
16:00 +18°C° 0.2 mm 4 mps 732 mmHg 60%
17:00 +17°C° 0.2 mm 3 mps 733 mmHg 63%
18:00 +16°C° 0.3 mm 3 mps 733 mmHg 68%
19:00 +16°C° 0.3 mm 2 mps 733 mmHg 74%
20:00 +15°C° 0.3 mm 2 mps 733 mmHg 79%
21:00 +14°C° 0.1 mm 2 mps 734 mmHg 80%
22:00 +14°C° 0.1 mm 2 mps 734 mmHg 81%
23:00 +13°C° 0.1 mm 3 mps 734 mmHg 82%
Show more